Location: Kapla
(46.2483°N, 15.0094°E)
Time: 15:12:08
(UTC+00:00)

OBJECT-B - Pass Details

Date: 03 March 2021
Orbit: 414 x 427 km, 97.0° (Epoch: 11 April)

Event Time Altitude Azimuth Distance (km) Brightness Sun altitude
Exits shadow 19:38:15 17° 304° (NW) 1,173 3.7 -29.4°
Drops below altitude 10° 19:39:22 10° 320° (NW) 1,514 4.3 -29.6°
Sets 19:41:39 0° 336° (NNW) 2,381 5.2 -30.0°
